User: anonymous
Location: Caltech
(34.1382°N, 118.1253°W)
Time: 12:19:31
(UTC-07:00)
Language:

ASTRO E2 - Orbit

View from above orbital plane
View from above orbital plane
View from above satellite
View from above satellite

Ground track
Ground track

The orbit data is extracted from the following two-line orbital elements,

1 28773U 05025A   14114.17870285  .00006515  00000-0  40302-3 0  2608
2 28773 031.3826 162.9650 0005097 011.7964 029.5264 15.08471573483037
Epoch (UTC): 24 April 2014 04:17:19
Eccentricity: 0.0005097
inclination: 31.3826°
perigee height: 537 km
apogee height: 544 km
right ascension of ascending node: 162.9650°
argument of perigee: 11.7964°
revolutions per day: 15.08471573
mean anomaly at epoch: 29.5264°
orbit number at epoch: 48303

The dashed part of the orbit path shows where the satellite is in the earth's shadow,  

DLR